STARLINK-11328 [DTC]

Last updated on Thu Nov 21 2024 00:02:05 GMT+0000 (Coordinated Universal Time)

1 61880U 24204G 24325.58335648 -.00468541 00000+0 -18395-2 0 9990 2 61880 53.1651 174.8717 0000537 83.0160 198.7376 15.87287977 3021
UTC large
Height (km)
Speed (km/s)
/
Latitude / Longitude
Inclination (degrees)
Orbital Period (minutes)
Azimuth
Elevation
Range (km)
Doppler Factor

Next 0 passes for location: London (51.5072 / 0.1276)

Sorry there are no passes over London.